Regional Weather Roundup
Issued by NWS Kansas City/Pleasant Hill, MO

Home | Current Version | Previous Version | Text Only | Print | Product List | Glossary On
Versions: 1 2 3 4 5 6 7 8 9 10 11 12 13 14 15 16 17 18 19 20 21 22 23 24 25 26 27 28 29 30 31 32 33 34 35 36 37 38 39 40 41 42 43 44 45 46 47 48 49 50
000
ASUS43 KEAX 030811
RWREAX

WEATHER ROUNDUP FOR EASTERN KANSAS AND NORTHWEST MISSOURI
NATIONAL WEATHER SERVICE KANSAS CITY/PLEASANT HILL MO
300 AM CDT WED JUN 03 2015

KSZ040-057-103>105-MOZ028-029-037-043-030900-
...KANSAS CITY METROPOLITAN AREA...

CITY           SKY/WX    TMP DP  RH WIND       PRES   REMARKS
K.C. INTL      MOCLDY    65  59  81 SE12      29.94F
K.C. DOWNTOWN  PTCLDY    67  58  72 SE7       29.93F
LEES SUMMIT    MOCLDY    64  58  80 SE9       29.95F
OLATHE - IXD   PTCLDY    64  60  87 SE9       29.95F
OLATHE - OJC   MOCLDY    64  59  83 SE9       29.94F
LAWRENCE       MOCLDY    65  60  84 SE8       29.93F

$$

MOZ001>008-011>017-020>025-030>033-038>040-044>046-053-054-030900-
...NORTHERN AND CENTRAL MISSOURI...

CITY           SKY/WX    TMP DP  RH WIND       PRES   REMARKS
ST. JOSEPH     PTCLDY    64  59  83 SE8       29.93F
MOSBY            N/A     63  57  82 SE6       29.95F
HARRISONVILLE  MOCLDY    64  61  88 SE5       29.99S
WARRENSBURG    CLOUDY    61  57  88 SE6       29.97F
WHITEMAN AFB   PTCLDY    62  58  87 S7        29.97S
CLINTON        MOCLDY    64  61  88 SE5       29.98F
SEDALIA        CLOUDY    62  57  83 SE6       30.00S
WARSAW         FAIR      61  57  88 SE7       30.00S
CHILLICOTHE      N/A     64  57  78 SE5       29.99F
MOBERLY        MOCLDY    59  54  82 SE5       30.02S
KIRKSVILLE     PTCLDY    57  56  96 S6        30.01F

$$

MOZ041-047>049-056>058-063>065-088>090-097-030900-
...EASTERN AND SOUTHERN MISSOURI...

CITY           SKY/WX    TMP DP  RH WIND       PRES   REMARKS
ST. LOUIS INTL PTCLDY    61  54  77 CALM      30.03F
SPIRIT OF STL  CLEAR     56  55  97 S3        30.02F
COLUMBIA       PTCLDY    57  55  93 SE7       30.02S
JEFFERSON CITY PTCLDY    57  55  93 E3        30.02S
MEXICO         PTCLDY   N/A N/A N/A S5        30.03S
ROLLA          PTCLDY    55  54  96 S7        30.01S
LEBANON        MOCLDY    57  55  94 SE9       30.02S
OSAGE BEACH    PTCLDY    57  54  88 SE7       30.01S
SPRINGFIELD    PTCLDY    62  59  90 S13       30.00R
BRANSON        CLOUDY    63  59  88 CALM      30.03S
NEVADA         CLEAR     64  61  88 S8        29.97S
JOPLIN         CLEAR     67  64  90 SE7       29.96S
WEST PLAINS    PTCLDY    55  53  93 CALM      30.05S

$$

IAZ060-094-KSZ022-034>040-054-083-096-NEZ052-066-093-030900-
...KANSAS...SOUTHEAST NEBRASKA AND IOWA...

CITY           SKY/WX    TMP DP  RH WIND       PRES   REMARKS
TOPEKA         MOCLDY    68  64  87 SE9       29.91F
MANHATTAN      CLEAR     71  67  87 S6        29.87F
EMPORIA        CLEAR     69  66  90 S13       29.90S
CHANUTE        CLEAR     68  67  96 SE7       29.93S
WICHITA        PTCLDY    73  66  78 S14       29.87S
OMAHA          MOCLDY    64  58  80 SE16      29.87F
LINCOLN        MOCLDY    66  62  87 S12       29.85F
FALLS CITY     CLEAR     64  59  83 SE10      29.89F
LAMONI         PTCLDY    62  56  80 SE9       29.96F
DES MOINES     MOCLDY    61  56  83 S12       29.95F

$$



USA.gov is the U.S. government's official web portal to all federal, state and local government web resources and services.